{"data":{"norad_id":39420,"epoch":"2026-09-20T01:52:02.771040Z","epoch_age_seconds":70131,"freshness":"FRESH","line1":"1 39420U 13066E   26263.07780985  .00000889  00000+0  13286-3 0  9994","line2":"2 39420  97.6666 122.6878 0117530  65.7224 295.6209 14.72520947685482","mean_motion":14.72520947,"eccentricity":0.011753,"inclination_deg":97.6666,"raan_deg":122.6878,"arg_perigee_deg":65.7224,"mean_anomaly_deg":295.6209,"bstar":0.00013286,"rev_number":68548,"period_min":97.791478140514,"perigee_km":570.39440933229,"apogee_km":735.66906162849,"semimajor_km":7031.1687354804,"source":"CELESTRAK","updated_at":"2026-09-20T09:00:13.953995Z"}}